Location: Saint Louis
(38.6272°N, 90.1978°W)
Time: 23:33:54
(UTC-05:00)

ISS - Pass Details

Date: 17 December 2012
Orbit: 402 x 404 km, 51.6° (Epoch: 26 May)

Event Time Altitude Azimuth Distance (km) Brightness Sun altitude
Rises 17:13:20 0° 272° (W) 2,387 1.9 -6.4°
Reaches altitude 10° 17:15:57 10° 292° (WNW) 1,515 0.3 -6.8°
Maximum altitude 17:18:20 18° 337° (NNW) 1,124 -1.1 -7.3°
Drops below altitude 10° 17:20:44 10° 22° (NNE) 1,502 -0.9 -7.7°
Enters shadow 17:21:38 - 32° (NNE) 1,779 -0.6 -7.8°
